This is the latest recevied weather packets stored in our database for station/object N1UNH. If no packets are shown the sender has not sent any weather packets the latest 10 day(s).
| Time | Temp. | Humidity | Pressure | Rain* | Wind** | Luminosity | Snow |
|---|---|---|---|---|---|---|---|
| 1777824761 | 10° C | 57% | 1011.8 hPa | 0 mm | - | 342 W/m² | - |
| 1777824458 | 10° C | 58% | 1011.8 hPa | 0 mm | - | 204 W/m² | - |
| 1777824154 | 9.44° C | 54% | 1011.8 hPa | 0 mm | - | 300 W/m² | - |
| 1777823850 | 9.44° C | 57% | 1011.9 hPa | 0 mm | - | 302 W/m² | - |
| 1777823548 | 9.44° C | 58% | 1011.9 hPa | 0 mm | - | 384 W/m² | - |
| 1777823245 | 9.44° C | 58% | 1011.7 hPa | 0 mm | - | 352 W/m² | - |
| 1777822942 | 8.89° C | 58% | 1012.2 hPa | 0 mm | - | 330 W/m² | - |
| 1777822640 | 8.89° C | 58% | 1012 hPa | 0 mm | - | 288 W/m² | - |
| 1777822338 | 8.89° C | 63% | 1012 hPa | 0 mm | - | 300 W/m² | - |
| 1777822035 | 8.89° C | 59% | 1012 hPa | 0 mm | - | 267 W/m² | - |
| 1777821733 | 8.33° C | 68% | 1012.1 hPa | 0 mm | - | 313 W/m² | - |
| 1777821430 | 8.33° C | 63% | 1012.2 hPa | 0 mm | - | 278 W/m² | - |
| 1777821127 | 8.33° C | 63% | 1012.1 hPa | 0 mm | - | 264 W/m² | - |
| 1777820824 | 8.33° C | 68% | 1012.2 hPa | 0 mm | - | 267 W/m² | - |
| 1777820520 | 7.78° C | 64% | 1012.2 hPa | 0 mm | - | 271 W/m² | - |
| 1777820217 | 8.33° C | 65% | 1012.2 hPa | 0 mm | - | 256 W/m² | - |
| 1777819914 | 8.33° C | 71% | 1012.3 hPa | 0 mm | - | 318 W/m² | - |
| 1777819611 | 7.78° C | 71% | 1012.4 hPa | 0 mm | - | 332 W/m² | - |
| 1777819309 | 7.78° C | 75% | 1012.2 hPa | 0 mm | - | 272 W/m² | - |
| 1777819005 | 7.22° C | 77% | 1012.5 hPa | 0 mm | - | 253 W/m² | - |
| 1777818703 | 7.22° C | 75% | 1012.4 hPa | 0 mm | - | 185 W/m² | - |
| 1777818399 | 6.67° C | 78% | 1012.2 hPa | 0 mm | - | 172 W/m² | - |
| 1777818096 | 6.67° C | 77% | 1012.5 hPa | 0 mm | - | 213 W/m² | - |
| 1777817793 | 6.67° C | 81% | 1012.4 hPa | 0 mm | - | 193 W/m² | - |
| 1777817491 | 6.11° C | 80% | 1012.4 hPa | 0 mm | - | 188 W/m² | - |
* Rain latest hour (hover to see other rain measurements)
** Current wind speed in m/s (hover to see current wind gust speed)